User: anonymous   Login
Location: C�mpuri de-Sus
(45.9500°N, 22.5500°E)
Time: 23:49:11
(UTC+00:00)
Language:

Cosmos 2322 Rocket - Orbit

View from above orbital plane
View from above orbital plane
View from above satellite
View from above satellite

Ground track
Ground track

The orbit data is extracted from the following two-line orbital elements,

1 23705U 95058B   22020.60910260 -.00000024  00000-0  12294-4 0  9993
2 23705  71.0233 107.4994 0014965 261.6421  98.3005 14.15165431354330
Epoch (UTC): 20 January 2022 14:37:06
Eccentricity: 0.0014965
inclination: 71.0233°
perigee height: 831 km
apogee height: 852 km
right ascension of ascending node: 107.4994°
argument of perigee: 261.6421°
revolutions per day: 14.15165431
mean anomaly at epoch: 98.3005°
orbit number at epoch: 35433

The dashed part of the orbit path shows where the satellite is in the earth's shadow,  

DLR